#timestamp,LO_Frequency,Hit,StdDev 
1590472815.8,286047000.7,N
1590472835.6,286047000.7,N
1590472855.4,286046998.8,N
1590472875.3,286046998.2,N
1590472895.1,286046998.1,N
1590472915.9,286047001.2,N
1590472935.7,286047000.9,N
1590472955.5,286046998.2,N
1590472975.4,286046998.8,N
1590472995.2,286046998.5,N
1590473015.0,286047000.7,N
1590473016.0,286047000.7,N
1590473035.8,286047000.6,N
1590473055.6,286047000.1,N
1590473075.5,286046999.8,N
1590473095.3,286046998.1,N
1590473115.1,286046998.3,N
1590473135.9,286046998.2,N
1590473155.7,286046998.1,N
1590473175.5,286046998.2,N
1590473195.4,286046998.3,N
1590473215.2,286046998.5,N
1590473235.1,286047001.0,N
1590473236.0,286047001.0,N
1590473255.8,286047000.7,N
1590473275.6,286046998.2,N
1590473295.5,286046998.5,N
1590473315.3,286046998.5,N
1590473335.1,286047000.7,N
1590473355.9,286047000.3,N
1590473375.7,286047002.7,N
1590473395.6,286047000.5,N
1590473415.4,286047000.6,N
1590473435.2,286047000.8,N
1590473455.1,286047000.1,N
1590473456.0,286047000.1,N
1590473475.8,286047000.4,N
1590473495.6,286047000.1,N
1590473515.5,286047000.3,N
1590473535.3,286046998.3,N
1590473555.1,286047001.2,N
1590473575.9,286046999.2,N
1590473595.7,286046998.7,N
1590473615.6,286046998.8,N
1590473635.4,286046998.2,N
1590473655.2,286047000.7,N
1590473675.1,286047001.1,N
1590473676.0,286047001.1,N
1590473695.8,286046998.9,N
1590473715.7,286046999.4,N
1590473735.5,286046999.0,N
1590473755.3,286046999.4,N
1590473775.2,286046998.2,N
1590473795.9,286046998.5,N
1590473815.7,286046998.5,N
1590473835.6,286046999.4,N
1590473855.4,286046998.9,N
1590473875.2,286046998.9,N
1590473895.1,286046999.5,N
1590473896.0,286046999.5,N
1590473915.8,286046999.4,N
1590473935.7,286046996.5,Y
1590473985.5,286046996.6,E
1590473995.5,286047000.2,N
1590474015.3,286047001.7,P
1590474035.1,286047001.9,N
1590474055.9,286047001.5,N
1590474075.7,286047001.3,N
1590474095.5,286047004.1,Y
1590474115.4,286047002.0,P
1590474135.2,286047001.3,P
1590474155.1,286047002.4,P
1590474156.0,286047002.4,Y
1590474175.8,286047000.8,P
1590474195.6,286046999.7,N
1590474215.5,286047002.3,N
1590474235.3,286047001.3,N
1590474255.1,286047001.3,N
1590474275.9,286047001.4,N
1590474295.7,286047003.8,Y
1590474315.6,286047001.6,P
1590474335.4,286047002.1,P
1590474355.2,286046999.9,N
1590474375.1,286047000.2,N
1590474376.0,286047000.2,N
1590474395.8,286047002.4,N
1590474415.7,286047000.0,N
1590474435.5,286046999.9,N
1590474455.3,286047001.2,N
1590474475.2,286046998.4,N
1590474495.9,286046999.5,N
1590474515.7,286046998.8,N
1590474535.6,286046998.7,N
1590474555.4,286046998.7,N
1590474575.2,286046998.4,N
1590474595.1,286046998.9,N
1590474596.0,286046998.9,N
1590474615.8,286046999.2,N
1590474635.7,286047011.9,Y
1590474655.5,286047000.5,P
1590474675.3,286047000.1,N
1590474695.2,286047000.5,N
1590474715.0,286047000.9,Y
1590474715.9,286047000.9,P
1590474735.8,286047000.3,N
1590474755.6,286047001.5,P
1590474775.4,286047002.5,Y
1590474795.3,286047002.8,P
1590474815.1,286047002.6,N
1590474835.9,286047000.1,N
1590474855.7,286047000.0,N
1590474875.5,286047000.3,N
1590474895.4,286046998.2,N
1590474915.2,286047000.4,N
1590474935.0,286047000.8,N
1590474935.9,286047000.8,N
1590474955.8,286046998.8,N
1590474975.6,286046996.5,N
1590474995.5,286046999.5,N
1590475015.3,286046999.4,N
1590475035.1,286046999.6,N
1590475055.9,286046996.6,N
1590475075.7,286046998.9,N
1590475095.5,286046999.6,N
1590475115.4,286046996.7,N
1590475135.2,286046999.2,N
1590475155.0,286046999.4,N
1590475156.0,286046999.4,N
1590475175.8,286046997.2,N
1590475195.6,286046996.6,N
1590475215.5,286046999.4,N
1590475235.3,286046998.6,N
1590475255.1,286046999.4,N
1590475275.9,286046997.1,N
1590475295.7,286046997.3,N
1590475315.5,286046997.6,N
1590475335.4,286046995.0,Y
1590475355.2,286046995.5,P
1590475375.1,286046996.3,N
1590475376.0,286046996.3,N
1590475395.8,286046993.9,Y
1590475415.6,286046999.6,P
1590475435.5,286046999.4,N
1590475455.3,286047001.0,N
1590475475.2,286047000.3,N
1590475495.9,286047001.6,N
1590475515.7,286047001.6,N
1590475535.6,286047002.5,N
1590475555.4,286047002.4,N
1590475575.2,286047001.2,N
1590475595.1,286046997.9,N
1590475596.0,286046997.9,N
1590475615.8,286046997.3,N
1590475635.7,286046997.2,N
1590475655.5,286046997.6,N
1590475705.4,286046999.2,E
1590475715.3,286046999.5,N
1590475735.1,286046999.6,P
1590475755.9,286046998.8,P
1590475775.7,286046998.9,Y
1590475795.5,286046998.5,P
1590475815.4,286047000.8,N
1590475835.2,286046998.1,N
1590475855.0,286046998.6,N
1590475855.9,286046998.6,N
1590475875.8,286046998.2,N
1590475895.6,286046998.3,N
1590475915.5,286046999.0,N
1590475935.3,286046999.1,N
1590475955.1,286046999.6,N
1590475975.9,286046999.0,N
1590475995.7,286046998.0,N
1590476015.5,286046996.2,Y
1590476035.4,286046997.7,P
1590476055.2,286046997.9,P
1590476075.1,286046997.4,P
1590476076.0,286046997.4,Y
1590476095.8,286046999.3,P
1590476115.6,286046997.7,P
1590476135.5,286046995.6,P
1590476155.3,286046995.1,Y
1590476175.1,286046999.2,P
1590476195.9,286047000.7,N
1590476215.7,286047000.0,N
1590476235.6,286047003.9,Y
1590476255.4,286047005.9,P
1590476275.2,286047005.9,N
1590476295.1,286047004.1,N
1590476296.0,286047004.1,N
1590476315.8,286047004.2,N
1590476335.7,286047002.7,N
1590476355.5,286047004.4,N
1590476375.3,286047002.3,N
1590476395.2,286047004.1,N
